This is the latest recevied weather packets stored in our database for station/object KF7ROW. If no packets are shown the sender has not sent any weather packets the latest 10 day(s).
| Time | Temp. | Humidity | Pressure | Rain* | Wind** | Luminosity | Snow |
|---|---|---|---|---|---|---|---|
| 1777773824 | 15.56° C | 80% | 1016.5 hPa | 0 mm | - | 86 W/m² | - |
| 1777773520 | 15° C | 83% | 1016.6 hPa | 0 mm | - | 80 W/m² | - |
| 1777773217 | 15.56° C | 83% | 1016.4 hPa | 0 mm | - | 82 W/m² | - |
| 1777772913 | 15.56° C | 82% | 1016.4 hPa | 0 mm | - | 87 W/m² | - |
| 1777772611 | 15.56° C | 81% | 1016.6 hPa | 0 mm | - | 96 W/m² | - |
| 1777772308 | 15.56° C | 80% | 1016.4 hPa | 0 mm | - | 139 W/m² | - |
| 1777772005 | 15.56° C | 81% | 1016.3 hPa | 0 mm | - | 136 W/m² | - |
| 1777771702 | 15.56° C | 82% | 1016.4 hPa | 0 mm | - | 151 W/m² | - |
| 1777771400 | 15.56° C | 81% | 1016.5 hPa | 0 mm | - | 137 W/m² | - |
| 1777771097 | 15.56° C | 80% | 1016.5 hPa | 0 mm | - | 207 W/m² | - |
| 1777770794 | 15.56° C | 81% | 1016.6 hPa | 0 mm | - | 254 W/m² | - |
| 1777770490 | 15.56° C | 81% | 1016.4 hPa | 0 mm | - | 286 W/m² | - |
| 1777770187 | 15° C | 81% | 1016.5 hPa | 0 mm | - | 295 W/m² | - |
| 1777769884 | 15.56° C | 82% | 1016.5 hPa | 0 mm | - | 292 W/m² | - |
| 1777769581 | 15° C | 80% | 1016.3 hPa | 0 mm | - | 291 W/m² | - |
| 1777769277 | 15° C | 81% | 1016.4 hPa | 0 mm | - | 301 W/m² | - |
| 1777768975 | 15° C | 82% | 1016.5 hPa | 0 mm | - | 311 W/m² | - |
| 1777768672 | 15° C | 82% | 1016.8 hPa | 0 mm | - | 318 W/m² | - |
| 1777768369 | 15° C | 82% | 1016.4 hPa | 0 mm | - | 326 W/m² | - |
| 1777768066 | 15° C | 82% | 1016.5 hPa | 0 mm | - | 334 W/m² | - |
| 1777767763 | 15° C | 80% | 1016.5 hPa | 0 mm | - | 343 W/m² | - |
| 1777767459 | 14.44° C | 83% | 1016.5 hPa | 0 mm | - | 358 W/m² | - |
| 1777767155 | 14.44° C | 82% | 1016.4 hPa | 0 mm | - | 373 W/m² | - |
| 1777766854 | 14.44° C | 84% | 1016.6 hPa | 0 mm | - | 388 W/m² | - |
| 1777766551 | 14.44° C | 82% | 1016.7 hPa | 0 mm | - | 406 W/m² | - |
* Rain latest hour (hover to see other rain measurements)
** Current wind speed in m/s (hover to see current wind gust speed)